Regional Weather Roundup
Issued by NWS State College, PA

Home | Current Version | Previous Version | Text Only | Print | Product List | Glossary Off
Versions: 1 2 3 4 5 6 7 8 9 10 11 12 13 14 15 16 17 18 19 20 21 22 23 24 25 26 27 28 29 30 31 32 33 34 35 36 37 38 39 40 41 42 43 44 45 46 47 48 49 50

000
ASUS41 KCTP 301903
RWRCTP

REGIONAL WEATHER ROUNDUP
NATIONAL WEATHER SERVICE STATE COLLEGE PA
300 PM EDT SUN AUG 30 2015

Note: "fair" indicates few or no clouds below 12,000 feet with no
significant weather and/or obstructions to visibility.

* = STATION THAT DOES NOT REPORT PRECIPITATION /E.G. RAIN...SNOW...ETC/
    THUNDER OR FOG.

PAZ002>004-007>009-013>016-020>023-029>032-302000-
WESTERN PENNSYLVANIA

CITY           SKY/WX    TMP DP  RH WIND       PRES   REMARKS
ERIE           SUNNY     78  65  63 NW6       30.08F
MEADVILLE      MOSUNNY   79  64  60 W8        30.11F
FRANKLIN*      PTSUNNY   79  66  65 SW8       30.13F
NEW CASTLE     MOCLDY    81  71  71 CALM      30.10F
BEAVER COUNTY  NOT AVBL
BUTLER*        PTSUNNY   81  66  61 SW6       30.12F
PITTSBURGH INT PTSUNNY   82  64  54 SW10      30.11F
PITTSBURGH     PTSUNNY   83  59  44 SW7       30.10F
INDIANA*       PTSUNNY   84  64  51 SW12      30.14F
LATROBE        MOSUNNY   82  64  54 W12       30.12F
WASHINGTON CO* PTSUNNY   82  64  54 W7        30.12F
$$

PAZ004>006-010>012-017>019-024>028-033>037-041-042-045-046-049>053-302000-
CENTRAL PENNSYLVANIA

CITY           SKY/WX    TMP DP  RH WIND       PRES   REMARKS
BRADFORD       LGT RAIN  75  63  66 W9        30.13F
DUBOIS         MOSUNNY   82  64  54 VRB5      30.12F
CLEARFIELD     MOSUNNY   81  63  54 W10       30.12F
JOHNSTOWN      MOSUNNY   81  57  43 W10       30.15F
ALTOONA        PTSUNNY   86  58  38 W8        30.12F
STATE COLLEGE  MOSUNNY   79  64  61 NW6       30.11S
WILLIAMSPORT   PTSUNNY   84  65  52 N8        30.05F
SELINSGROVE    CLOUDY    80  68  66 CALM      30.07F
FT INDIANTOWN  CLOUDY    86  65  49 SW8       30.06F
CAPITAL CITY   CLOUDY    84  68  58 SW6       30.06F
HARRISBURG     CLOUDY    85  68  56 S7        30.06F
YORK           CLOUDY    85  67  54 S5        30.07F
$$

PAZ038>040-043-044-047-048-054-055-060>062-067>071-302000-
EASTERN PENNSYLVANIA

CITY           SKY/WX    TMP DP  RH WIND       PRES   REMARKS
SCRANTON       PTSUNNY   82  66  58 VRB6      30.07F
MOUNT POCONO   PTSUNNY   79  62  56 SW10      30.20R
ALLENTOWN      PTSUNNY   86  65  49 W9        30.06F
QUAKERTOWN*    MOCLDY    86  66  51 SW6       30.08F
READING        PTSUNNY   87  66  49 SW7       30.05F
LANCASTER      CLOUDY    86  66  51 W8        30.07F
COATESVILLE    LGT RAIN  84  68  58 S7        30.10F
POTTSTOWN      PTSUNNY   86  66  51 SW8       30.08F
BLUE BELL      PTSUNNY   88  68  51 SW6       30.06F
DOYLESTOWN     PTSUNNY   85  63  47 W8        30.06F
WILLOW GROVE   NOT AVBL
NORTH PHILA    PTSUNNY   90  61  37 SW10G16   30.06F
PHILADELPHIA   PTSUNNY   89  63  41 SW12      30.06F
$$



USA.gov is the U.S. government's official web portal to all federal, state and local government web resources and services.